Location: Newark
(46.7000°N, 60.6000°W)
Time: 03:53:22
(UTC+00:00)

A-11 Canister half - Pass Details

Date: 30 October 2020
Orbit: 1525 x 1683 km, 47.3° (Epoch: 23 November)

Event Time Altitude Azimuth Distance (km) Brightness Sun altitude
Rises 02:07:42 0° 287° (WNW) 4,681 12.0 -51.3°
Reaches altitude 10° 02:12:18 10° 268° (W) 3,692 11.2 -51.8°
Enters shadow 02:13:44 13° 259° (W) 3,478 11.0 -51.9°
Maximum altitude 02:17:17 16° 234° (SW) 3,244 - -52.3°
Drops below altitude 10° 02:22:18 10° 201° (SSW) 3,704 - -52.8°
Sets 02:26:57 0° 181° (S) 4,703 - -53.2°
